Regional Weather Roundup
Issued by NWS

Home | Current Version | Previous Version | Graphics & Text | Print | Product List | Glossary On
Versions: 1 2 3 4 5 6 7 8 9 10 11 12 13 14 15 16 17 18 19 20 21 22 23 24 25 26 27 28 29 30 31 32 33 34 35 36 37 38 39 40 41 42 43 44 45 46 47 48 49 50
000
ASUS43 KOAX 251002
RWRNE

WEATHER ROUNDUP FOR NEBRASKA
NATIONAL WEATHER SERVICE OMAHA NE
500 AM CDT THU AUG 25 2016

NOTES: SATELLITE DATA IS BEING USED TO AUGMENT CLOUD COVER ABOVE
       12000 FEET.
       "FAIR" INDICATES FEW OR NO CLOUDS BELOW 12,000 FEET WITH NO
       SIGNIFICANT WEATHER AND/OR OBSTRUCTIONS TO VISIBILITY.

  * THESE STATIONS DO NOT REPORT WEATHER SUCH AS RAIN...SNOW OR FOG.

NEZ001>004-019>022-054>056-251100-
NEBRASKA PANHANDLE

CITY           SKY/WX    TMP DP  RH WIND       PRES   REMARKS
SCOTTSBLUFF    CLOUDY    52  49  89 NW5       30.23R
ALLIANCE       MOCLDY    49  47  93 CALM      30.23R
CHADRON        CLOUDY    54  47  77 NE5       30.25R
SIDNEY         CLEAR     43  39  86 W7        30.23S
$$

NEZ057>060-069>072-079>082-251100-
SOUTHWEST NEBRASKA

CITY           SKY/WX    TMP DP  RH WIND       PRES   REMARKS
NORTH PLATTE   CLOUDY    51  49  92 CALM      30.18R
IMPERIAL       PTCLDY    53  46  77 CALM      30.18S
LEXINGTON      MOCLDY    57  55  91 NW6       30.15R
MCCOOK         CLOUDY    56  52  86 W5        30.16S
OGALLALA       PTCLDY    48  44  87 CALM      30.19S
$$

NEZ005>010-023>029-035>040-094-251100-
NORTH CENTRAL NEBRASKA

CITY           SKY/WX    TMP DP  RH WIND       PRES   REMARKS
VALENTINE      PTCLDY    57  44  62 NW7       30.20R
AINSWORTH      PTCLDY    55  51  85 N8        30.19R
BROKEN BOW     MOCLDY    53  53 100 N5        30.15S
O`NEILL        CLOUDY    61  52  72 NW9       30.14S
ORD            MOCLDY    57  54  89 CALM      30.12S
THEDFORD       PTCLDY    52  50  93 W6        30.19S
$$

NEZ041-046>049-061>064-073>077-083>087-251100-
SOUTH CENTRAL NEBRASKA

CITY           SKY/WX    TMP DP  RH WIND       PRES   REMARKS
GRAND ISLAND   CLOUDY    58  55  90 W5        30.13S
AURORA         CLOUDY    58  57  98 W3        30.12S
HASTINGS       CLOUDY    59  54  83 W3        30.14S
HEBRON         CLOUDY    60  57  89 CALM      30.10F
HOLDREGE       MOCLDY    57  55  91 NW3       30.14F
KEARNEY *      CLOUDY   N/A N/A N/A S6        30.13F
YORK           MOCLDY    55  55 100 CALM      30.11R
$$

NEZ011>018-030>034-042>045-251100-
NORTHEAST NEBRASKA

CITY           SKY/WX    TMP DP  RH WIND       PRES   REMARKS
NORFOLK        CLEAR     55  53  93 CALM      30.11S
ALBION         PTCLDY    56  53  91 NW8       30.12R
BLAIR          CLOUDY    61  57  87 N7        30.08F
FREMONT        PTCLDY    56  55  96 CALM      30.10S
TEKAMAH        PTCLDY    54  52  93 CALM      30.08F
WAYNE          CLOUDY    55  55  97 CALM      30.11S
$$

NEZ050>053-065>068-078-088>093-251100-
SOUTHEAST NEBRASKA

CITY           SKY/WX    TMP DP  RH WIND       PRES   REMARKS
LINCOLN        PTCLDY    59  56  89 N3        30.10S
OMAHA EPPLEY   CLOUDY    60  57  89 N6        30.09S
BEATRICE       MOCLDY    59  57  94 NE5       30.08S
FALLS CITY     PTCLDY    66  65  96 NW5       30.05S
NEBRASKA CITY  PTCLDY    62  62 100 N7        30.08F
PLATTSMOUTH    PTCLDY    60  60  98 CALM      30.08F
$$

NEZ044-045-051>053-067-251100-
OMAHA AREA

CITY           SKY/WX    TMP DP  RH WIND       PRES   REMARKS
OMAHA EPPLEY   CLOUDY    60  57  89 N6        30.09S
BLAIR          CLOUDY    61  57  87 N7        30.08F
FREMONT        PTCLDY    56  55  96 CALM      30.10S
MILLARD        PTCLDY    60  57  88 CALM      30.09S
OFFUTT AFB     CLEAR     58  58 100 CALM      30.08S
PLATTSMOUTH    PTCLDY    60  60  98 CALM      30.08F
WAHOO          FAIR      56  54  92 N5        30.09S
$$




USA.gov is the U.S. government's official web portal to all federal, state and local government web resources and services.